Temp
85 84 84 82 82 82 83 82 83 83 82 81 80 79 76 74 70 68 69 72 75 80 85 80 82 85 83 81 83 82 81 82 82 82 81 81 81 77 72 73 73 72 72 71 70 70 70 70 70 70 71 71 72 72 72 72 72 72 72 72 72 72 72 71 72 71 71 71 71 72 72 73 74 75
82 82 83 83 83 83 83 83 84 83 82 81 80 79 78 77 72 71 69 70 75 77 82 84 81 83 83 83 81 82 81 80 81 81 81 81 82 77 72 72 72 72 71 71 70 70 70 69 69 70 70 71 71 71 71 71 71 71 71 71 71 71 71 71 71 71 71 71 71 71 72 72 72 73
82 82 82 82 81 82 82 82 83 84 82 81 81 80 80 78 77 74 72 69 75 80 76 80 85 84 83 84 83 83 83 81 82 82 81 81 79 75 77 71 71 71 71 70 70 70 69 69 69 69 70 69 70 70 70 71 71 71 71 71 71 71 71 70 70 71 71 71 71 71 71 71 72 72
84 82 81 81 80 81 81 82 82 82 81 81 79 79 79 78 78 77 74 70 71 78 79 79 81 84 83 83 81 81 82 83 79 81 81 80 78 79 80 76 72 71 70 71 71 70 69 68 68 69 69 69 69 70 70 70 70 70 70 70 70 70 70 69 70 70 70 70 71 71 71 71 71 72
82 81 81 81 82 82 81 81 82 81 80 80 80 80 79 78 78 76 74 72 72 76 80 80 80 83 83 81 82 80 81 81 81 80 81 80 80 80 81 81 76 72 71 70 70 70 69 68 68 68 69 69 69 70 70 70 69 69 69 70 69 69 69 69 70 70 70 70 70 70 71 71 71 72
82 82 80 81 81 82 81 81 81 80 81 81 81 80 80 79 79 79 76 73 72 71 76 77 80 81 83 79 82 80 79 80 80 80 80 81 81 80 80 81 82 75 73 71 70 69 69 68 68 68 69 69 69 70 69 69 68 69 69 69 69 69 68 68 68 69 69 70 70 70 70 70 71 71
81 81 80 81 82 82 81 81 81 82 81 81 80 79 80 78 78 78 78 75 72 71 72 76 77 78 80 79 79 81 82 80 80 79 78 80 80 81 81 81 82 76 73 71 69 68 68 68 68 68 68 68 68 68 68 68 68 68 68 67 67 68 68 68 68 68 69 69 70 70 70 70 70 71
81 81 80 81 82 82 80 80 81 81 81 80 79 79 79 77 77 78 77 76 74 73 71 74 76 78 77 79 80 81 81 80 79 79 79 80 79 80 81 80 80 78 74 72 70 69 68 68 67 67 67 67 67 67 66 67 67 66 66 66 66 66 66 65 65 66 67 67 67 68 69 69 69 70
81 81 81 81 82 81 79 80 80 81 80 80 80 78 78 77 78 78 78 77 76 73 72 73 75 77 78 79 78 79 78 78 78 79 78 78 78 78 80 81 82 76 73 72 71 70 69 68 68 67 67 67 66 66 66 66 65 65 65 64 64 65 65 65 65 65 65 65 65 66 67 68 69 69
81 80 80 81 81 81 80 80 80 80 79 80 79 78 76 74 72 68 66 69 72 72 70 66 68 73 74 75 76 78 78 76 75 76 77 78 78 76 77 80 81 82 82 82 81 74 71 70 68 68 69 68 66 66 66 66 65 64 63 61 62 64 63 63 63 64 64 64 63 64 65 67 67 68
81 81 79 79 81 81 81 81 80 80 79 79 77 75 73 75 74 69 69 72 72 71 70 71 72 72 75 75 74 76 78 77 75 73 73 73 77 78 77 76 80 82 82 79 75 76 77 76 77 72 68 67 66 66 65 65 63 63 62 61 61 61 61 62 62 61 62 63 63 63 63 63 64 66
81 80 82 82 81 81 82 81 80 80 79 78 77 77 77 76 75 73 72 73 73 73 73 72 72 73 73 74 76 77 75 72 72 75 74 71 72 73 76 77 76 78 78 78 81 77 76 76 73 70 70 69 68 66 66 67 66 65 63 62 64 63 62 61 61 61 61 61 61 62 63 63 63 64
78 79 81 81 75 71 73 77 76 75 73 76 74 73 73 72 73 74 74 74 73 72 72 71 73 72 72 73 73 71 70 68 68 73 75 73 74 74 74 75 77 77 76 77 79 78 79 78 78 79 79 79 75 75 70 73 71 68 65 64 64 64 63 62 61 61 61 61 60 60 61 62 62 62
79 79 80 74 71 72 73 75 73 71 68 68 69 70 70 71 72 72 71 71 72 71 70 71 71 71 71 72 73 73 74 75 75 74 73 70 72 72 71 73 75 78 77 76 74 76 79 78 77 78 77 79 78 78 79 81 80 73 68 66 65 64 63 62 61 60 60 60 60 60 60 60 61 61
78 79 79 77 76 75 74 73 69 68 66 67 67 66 67 69 70 70 70 71 72 71 71 72 72 71 70 72 74 74 74 75 74 73 72 71 71 69 68 66 72 77 76 73 72 72 76 76 74 75 77 77 78 79 80 74 72 69 68 69 69 67 66 66 64 63 62 61 61 61 60 60 60 60
78 78 78 78 76 74 73 72 72 70 68 67 67 67 67 66 65 66 69 70 71 71 70 70 71 71 70 71 72 73 74 71 72 72 71 70 69 68 68 68 67 74 76 72 70 70 75 76 75 74 76 77 78 80 75 72 70 69 69 67 65 65 65 65 65 65 64 64 64 63 62 61 61 61
77 77 76 77 77 76 74 72 73 73 74 71 69 68 67 66 65 64 63 64 69 72 70 70 69 70 70 68 69 72 70 71 68 70 69 70 70 69 68 68 70 72 75 71 68 68 73 75 74 74 75 77 78 79 75 72 69 67 65 66 66 66 66 65 65 66 66 65 64 62 62 62 62 62
77 76 75 75 77 77 76 75 76 77 76 76 75 74 73 72 72 67 64 62 62 65 69 70 69 71 71 68 69 70 70 69 68 68 68 69 68 67 67 69 70 72 75 70 69 67 71 75 74 72 76 79 78 78 76 71 69 68 67 65 64 64 65 65 65 64 64 64 64 63 62 60 60 60
76 76 77 78 78 78 77 77 76 76 76 75 74 74 75 75 74 75 76 77 75 70 70 71 71 71 72 73 73 73 73 71 70 70 68 68 68 69 70 70 71 72 75 74 71 65 71 75 73 73 76 79 78 79 74 72 70 68 65 64 65 65 65 64 64 64 63 63 62 62 61 60 59 59
76 77 78 79 77 77 76 73 70 73 75 74 73 71 72 73 74 76 75 71 72 77 77 76 77 78 77 68 71 71 72 71 70 70 71 71 69 67 66 65 71 70 75 75 72 69 70 75 75 74 77 77 75 76 77 73 70 69 67 66 65 64 63 63 63 63 63 63 62 62 60 59 58 58
76 77 79 77 75 76 77 66 61 64 68 70 70 70 70 72 74 75 76 71 66 66 64 62 61 59 59 60 59 58 57 64 67 69 66 64 69 66 64 66 67 68 73 76 75 73 70 73 73 72 74 73 72 73 74 76 72 69 66 65 65 63 62 62 62 62 63 63 62 62 61 59 58 59
76 77 76 76 77 76 75 59 59 60 67 71 72 72 72 73 72 73 76 78 75 63 61 60 59 60 60 60 59 59 59 58 60 66 64 69 70 66 66 64 67 70 72 74 78 71 70 73 73 70 72 71 73 73 74 74 73 69 68 66 64 63 63 62 62 62 62 62 62 62 60 59 59 63
76 76 76 73 72 72 65 54 56 56 65 71 72 72 71 71 71 73 75 74 74 74 74 73 73 70 67 69 71 71 62 60 63 68 68 70 68 66 67 69 68 67 69 74 76 68 69 69 71 69 66 65 69 72 72 72 71 71 70 70 70 65 64 62 61 60 61 62 62 61 60 59 59 66
76 76 76 71 58 55 54 53 52 54 55 67 72 72 71 70 70 71 71 72 71 70 71 71 72 71 72 74 75 77 77 76 72 70 70 70 70 70 70 70 69 66 67 73 77 69 70 69 67 70 68 62 59 65 69 69 70 70 69 68 68 67 66 65 64 62 60 59 60 59 59 58 58 66
77 76 76 77 58 53 52 51 50 50 52 56 66 70 70 66 59 62 70 70 69 69 69 69 70 72 73 74 75 76 76 77 80 80 79 78 77 73 70 69 68 68 70 73 69 69 66 68 66 67 66 66 66 64 66 66 67 67 67 67 67 70 71 72 70 72 66 61 57 56 56 57 56 63
79 78 77 73 57 51 50 50 48 48 50 53 63 63 50 50 54 63 66 68 69 70 70 71 71 72 72 72 72 74 75 77 76 77 76 76 76 74 73 69 66 65 66 71 66 69 66 64 66 64 64 62 62 63 61 61 64 66 67 67 68 69 70 70 70 70 69 71 72 64 61 57 57 57
77 78 73 64 52 50 47 46 46 48 49 53 61 48 50 51 51 58 68 67 67 67 68 69 69 69 70 70 71 73 73 74 74 74 73 73 73 71 72 72 71 69 70 71 72 70 67 65 67 63 61 62 60 60 59 59 60 64 63 65 67 69 71 70 69 69 71 71 71 63 58 57 56 57
74 77 74 63 49 46 43 44 47 49 50 60 48 47 49 52 55 63 65 66 66 67 69 68 68 68 70 71 71 71 72 72 70 70 70 70 71 71 71 71 71 72 71 72 72 71 69 66 65 65 64 63 60 57 56 59 60 62 61 64 66 69 70 71 70 70 71 72 72 73 70 66 64 61
70 57 49 45 45 46 45 46 48 50 50 48 49 48 48 54 66 66 66 66 68 68 67 67 68 69 70 70 71 71 70 70 69 69 70 72 71 72 71 71 71 71 72 74 73 73 70 67 66 67 65 64 60 59 57 56 58 59 60 60 61 65 67 69 69 68 69 71 71 70 70 69 67 65
51 50 49 47 47 49 51 56 62 65 66 56 52 52 53 65 67 68 68 69 68 67 67 67 67 68 70 71 70 69 69 68 68 68 68 68 69 70 69 68 69 71 74 74 74 72 71 71 70 68 65 63 61 59 58 56 56 59 61 59 60 63 64 65 65 66 66 66 68 69 70 72 70 67
63 56 58 61 57 60 56 59 60 63 62 61 61 64 66 68 68 68 70 69 68 67 67 66 68 69 70 70 68 67 67 67 68 70 68 68 68 68 67 66 66 68 71 73 75 74 72 71 71 69 64 62 62 60 59 58 56 57 59 61 60 57 60 63 65 66 66 67 68 68 70 73 72 69
72 69 60 57 64 65 64 64 67 68 68 69 69 70 71 71 71 72 70 66 67 66 68 69 68 68 67 66 68 69 68 69 69 69 68 67 66 67 66 64 64 66 68 70 71 72 73 72 71 70 67 64 60 59 59 59 58 58 59 62 62 62 62 62 64 65 67 66 66 67 67 73 73 72
72 71 70 71 70 69 69 69 69 71 71 69 71 72 71 70 71 71 71 70 69 70 69 68 66 66 67 67 68 68 68 67 68 69 67 67 66 66 67 65 65 65 65 66 68 69 71 72 72 70 67 64 62 60 58 57 59 60 59 61 62 62 63 64 64 63 65 64 64 65 67 71 74 73
75 75 75 74 74 72 71 71 71 73 73 73 72 72 68 71 72 72 72 72 72 71 68 67 67 66 67 66 67 67 67 67 68 68 65 66 67 65 66 65 65 67 66 66 66 67 68 69 70 68 66 63 63 61 59 58 57 59 59 61 60 60 62 63 64 65 64 63 63 63 65 67 73 75
74 74 73 74 74 73 74 73 73 72 72 72 71 72 72 72 71 71 73 73 69 68 67 67 67 67 67 66 67 66 67 66 67 68 68 68 68 67 67 66 66 66 66 66 66 66 67 67 67 64 61 60 59 61 65 62 58 58 59 59 61 60 61 63 63 64 64 63 64 63 63 66 69 74
73 74 74 73 73 73 74 73 73 73 73 71 71 70 70 72 74 71 70 66 67 67 66 67 67 67 67 67 67 67 67 66 67 67 67 67 67 68 68 67 66 67 67 67 67 68 68 67 65 60 56 55 55 54 57 62 61 59 57 57 59 59 61 62 63 64 63 61 61 62 62 64 66 69
73 73 74 74 73 74 73 72 72 71 72 72 72 71 71 73 71 71 69 67 67 66 67 67 67 68 68 68 67 66 67 66 66 66 66 67 68 68 67 67 67 66 67 67 68 68 67 65 65 60 56 54 53 53 55 61 60 61 60 57 57 59 58 59 60 60 61 61 60 62 63 64 66 68
72 73 72 75 74 74 73 73 73 71 70 70 71 71 72 72 71 70 69 68 67 68 68 68 68 68 69 67 67 67 67 67 67 67 67 67 67 66 66 66 66 67 66 67 68 68 66 64 64 62 59 55 53 53 53 58 59 61 59 58 56 56 58 57 57 57 59 61 59 60 60 61 65 68
71 71 71 72 73 72 71 71 70 69 70 70 69 72 74 73 71 69 68 68 68 67 68 67 67 67 66 67 67 67 66 66 66 66 66 67 66 65 65 66 65 66 67 67 68 67 67 65 63 62 59 56 54 54 55 55 56 60 60 56 56 57 57 56 55 57 57 58 58 60 62 65 66 65
70 71 72 71 71 71 70 69 68 68 68 69 71 71 72 70 68 67 67 67 67 66 66 67 66 65 67 68 67 68 68 66 66 67 67 67 66 66 66 66 65 66 66 66 65 66 65 64 63 61 60 59 60 61 60 59 59 62 63 62 55 55 56 56 55 55 56 57 57 57 58 62 65 68
72 70 71 70 70 69 69 69 69 68 69 69 68 63 67 69 66 65 66 66 64 64 65 66 67 66 67 68 68 68 66 66 67 67 67 66 65 66 64 62 65 67 66 65 65 65 65 65 66 61 64 63 64 63 60 59 57 58 59 61 57 56 54 55 57 56 55 57 56 56 57 58 62 66
71 71 70 70 69 69 69 68 69 70 70 70 70 72 73 68 65 63 65 64 63 63 65 66 67 67 68 68 68 67 66 66 66 66 66 66 66 66 64 65 66 66 65 64 65 66 68 68 67 66 65 64 62 57 55 55 55 56 58 59 60 57 56 55 56 56 57 57 54 53 54 57 59 62
71 70 69 69 69 69 69 69 69 69 70 70 69 70 70 66 66 66 66 66 66 67 68 68 68 68 67 68 68 67 67 66 66 65 66 66 66 65 65 66 66 66 66 66 68 68 68 68 66 65 64 63 61 59 55 55 56 56 56 56 56 57 58 58 57 56 57 57 56 54 54 52 52 54
70 70 69 69 69 68 67 67 68 67 67 66 68 68 66 66 66 67 67 67 67 67 68 67 67 67 67 67 67 67 67 67 66 65 65 66 66 66 66 66 66 66 67 67 67 67 68 68 67 66 63 63 62 58 56 55 55 55 55 55 56 56 55 57 59 57 58 58 57 56 55 55 54 53
71 71 71 70 70 70 70 69 69 68 67 70 70 67 66 66 66 67 68 68 68 67 67 67 67 67 67 66 66 65 66 61 64 67 67 67 67 66 67 67 66 66 66 67 66 66 67 67 67 66 65 65 64 61 60 58 56 55 54 54 54 54 55 56 55 55 54 55 56 56 55 55 55 54
MSLP
1017.17 1017.21 1017.21 1017.49 1017.69 1017.65 1017.45 1017.45 1017.45 1017.45 1017.53 1017.85 1018.05 1018.29 1018.85 1019.25 1020.09 1020.29 1020.05 1019.25 1018.81 1017.73 1016.93 1017.45 1016.49 1016.05 1016.53 1016.93 1016.81 1016.97 1017.01 1016.93 1016.97 1016.93 1016.85 1016.69 1016.57 1016.45 1016.57 1016.61 1016.61 1016.61 1016.69 1016.73 1016.77 1016.81 1016.81 1016.81 1016.77 1016.73 1016.69 1016.61 1016.53 1016.45 1016.41 1016.33 1016.29 1016.21 1016.13 1016.05 1015.97 1015.93 1015.85 1015.81 1015.73 1015.61 1015.53 1015.45 1015.41 1015.37 1015.37 1015.33 1015.25 1015.21
1017.29 1017.33 1017.21 1017.17 1017.29 1017.17 1017.29 1017.29 1017.09 1017.09 1017.25 1017.57 1017.73 1017.89 1018.05 1018.29 1019.21 1019.45 1020.05 1019.57 1018.57 1018.09 1017.13 1016.81 1016.81 1016.25 1016.49 1016.57 1016.73 1016.65 1016.69 1016.57 1016.61 1016.61 1016.53 1016.41 1016.25 1016.17 1016.25 1016.29 1016.33 1016.37 1016.41 1016.41 1016.41 1016.45 1016.49 1016.49 1016.49 1016.45 1016.37 1016.29 1016.25 1016.17 1016.13 1016.05 1015.97 1015.93 1015.85 1015.77 1015.69 1015.61 1015.53 1015.45 1015.41 1015.33 1015.25 1015.17 1015.13 1015.09 1015.05 1014.97 1014.97 1014.97
1017.21 1017.29 1017.37 1017.21 1017.33 1017.13 1017.17 1017.09 1016.97 1016.89 1017.05 1017.29 1017.41 1017.61 1017.73 1017.97 1018.21 1018.69 1019.01 1019.61 1018.05 1017.49 1017.93 1017.13 1016.37 1016.37 1016.29 1016.25 1016.29 1016.17 1016.09 1016.13 1016.17 1016.17 1016.09 1016.01 1015.93 1016.01 1015.97 1016.05 1016.09 1016.13 1016.09 1016.05 1016.05 1016.05 1016.05 1016.09 1016.09 1016.09 1016.05 1015.97 1015.93 1015.85 1015.81 1015.77 1015.69 1015.61 1015.49 1015.41 1015.33 1015.25 1015.17 1015.09 1015.05 1015.01 1014.93 1014.85 1014.81 1014.77 1014.73 1014.69 1014.61 1014.57
1016.81 1017.01 1017.21 1017.21 1017.25 1017.13 1017.09 1017.05 1017.01 1017.09 1017.09 1017.09 1017.41 1017.53 1017.61 1017.69 1017.73 1017.93 1018.41 1018.85 1018.57 1017.21 1017.21 1016.93 1016.53 1016.05 1015.97 1015.97 1016.25 1016.13 1015.93 1015.73 1015.85 1015.93 1015.85 1015.73 1015.73 1015.73 1015.57 1015.45 1015.57 1015.61 1015.65 1015.65 1015.65 1015.65 1015.65 1015.65 1015.65 1015.65 1015.65 1015.61 1015.57 1015.53 1015.53 1015.45 1015.37 1015.33 1015.21 1015.13 1015.01 1014.93 1014.85 1014.81 1014.73 1014.61 1014.57 1014.53 1014.49 1014.41 1014.37 1014.37 1014.29 1014.21
1016.81 1016.89 1017.01 1017.05 1016.93 1016.85 1017.05 1017.05 1017.05 1017.09 1017.21 1017.17 1017.21 1017.29 1017.41 1017.57 1017.49 1017.81 1018.13 1018.49 1018.29 1017.25 1016.57 1016.69 1016.53 1015.97 1015.85 1016.05 1015.85 1016.05 1015.89 1015.81 1015.65 1015.57 1015.49 1015.45 1015.49 1015.37 1015.21 1015.01 1014.93 1015.05 1015.09 1015.13 1015.17 1015.17 1015.17 1015.17 1015.17 1015.13 1015.17 1015.17 1015.21 1015.17 1015.13 1015.09 1015.01 1014.97 1014.89 1014.81 1014.69 1014.61 1014.49 1014.41 1014.33 1014.21 1014.13 1014.09 1014.05 1014.01 1013.97 1013.97 1013.97 1013.89
1016.69 1016.69 1016.89 1016.85 1016.77 1016.65 1016.89 1016.89 1017.01 1017.13 1017.09 1017.01 1016.97 1017.01 1017.13 1017.21 1017.25 1017.09 1017.73 1018.09 1018.21 1018.13 1017.01 1016.81 1016.21 1016.09 1015.65 1016.01 1015.41 1015.81 1015.89 1015.73 1015.49 1015.45 1015.29 1015.09 1015.09 1015.09 1014.89 1014.73 1014.53 1014.49 1014.53 1014.61 1014.69 1014.69 1014.73 1014.73 1014.73 1014.73 1014.73 1014.73 1014.73 1014.69 1014.65 1014.61 1014.57 1014.49 1014.37 1014.33 1014.25 1014.13 1014.05 1013.93 1013.85 1013.81 1013.73 1013.69 1013.65 1013.61 1013.57 1013.49 1013.49 1013.49
1016.49 1016.65 1016.69 1016.65 1016.49 1016.45 1016.73 1016.77 1016.81 1016.77 1016.85 1016.81 1016.97 1017.01 1016.89 1017.13 1017.05 1016.93 1017.09 1017.57 1017.97 1017.93 1017.49 1016.65 1016.45 1016.13 1015.81 1015.85 1015.61 1015.29 1015.25 1015.29 1015.25 1015.37 1015.29 1015.13 1014.85 1014.61 1014.49 1014.41 1014.21 1014.13 1014.21 1014.25 1014.29 1014.37 1014.41 1014.41 1014.37 1014.33 1014.29 1014.25 1014.21 1014.21 1014.17 1014.09 1014.01 1013.93 1013.85 1013.77 1013.73 1013.65 1013.53 1013.45 1013.41 1013.37 1013.29 1013.21 1013.17 1013.13 1013.09 1013.05 1013.01 1013.01
1016.29 1016.45 1016.57 1016.53 1016.41 1016.33 1016.61 1016.61 1016.61 1016.57 1016.61 1016.77 1016.73 1016.77 1016.73 1016.77 1016.73 1016.61 1016.69 1016.81 1017.21 1017.29 1017.37 1016.61 1016.49 1016.05 1016.05 1015.65 1015.29 1015.13 1015.05 1015.13 1015.13 1015.01 1014.93 1014.73 1014.65 1014.41 1014.21 1014.09 1014.05 1013.93 1013.97 1013.93 1013.89 1013.89 1013.89 1013.89 1013.89 1013.85 1013.81 1013.73 1013.73 1013.69 1013.61 1013.57 1013.49 1013.37 1013.33 1013.29 1013.17 1013.13 1013.05 1013.01 1012.97 1012.89 1012.81 1012.73 1012.65 1012.61 1012.61 1012.61 1012.53 1012.49
1015.93 1016.09 1016.21 1016.21 1016.21 1016.33 1016.61 1016.65 1016.69 1016.49 1016.57 1016.53 1016.53 1016.61 1016.49 1016.49 1016.41 1016.37 1016.45 1016.57 1016.65 1016.81 1016.93 1016.73 1016.41 1016.05 1015.81 1015.53 1015.37 1015.09 1015.25 1015.09 1014.93 1014.77 1014.77 1014.65 1014.45 1014.25 1013.97 1013.73 1013.57 1013.57 1013.53 1013.45 1013.37 1013.33 1013.37 1013.37 1013.37 1013.33 1013.25 1013.17 1013.13 1013.09 1013.01 1012.97 1012.89 1012.81 1012.77 1012.73 1012.65 1012.57 1012.53 1012.53 1012.45 1012.37 1012.29 1012.17 1012.13 1012.09 1012.05 1012.05 1012.05 1012.01
1015.61 1015.89 1016.05 1016.01 1015.97 1016.05 1016.33 1016.41 1016.37 1016.37 1016.49 1016.37 1016.45 1016.53 1016.61 1016.93 1017.37 1017.85 1018.21 1017.85 1017.21 1017.05 1017.13 1017.53 1017.33 1016.41 1016.13 1015.77 1015.53 1015.09 1014.97 1015.21 1015.17 1014.93 1014.57 1014.29 1014.09 1014.13 1014.13 1013.77 1013.37 1013.09 1013.01 1012.93 1012.81 1012.81 1012.77 1012.69 1012.69 1012.61 1012.49 1012.45 1012.45 1012.41 1012.37 1012.25 1012.21 1012.21 1012.17 1012.09 1012.05 1012.05 1012.01 1011.93 1011.85 1011.77 1011.69 1011.61 1011.57 1011.53 1011.49 1011.49 1011.45 1011.45
1015.25 1015.45 1015.65 1015.69 1015.73 1015.85 1015.93 1016.09 1016.13 1016.17 1016.25 1016.29 1016.53 1016.65 1016.73 1016.49 1016.61 1016.89 1017.13 1017.01 1016.85 1016.85 1016.93 1016.57 1016.41 1016.17 1015.61 1015.53 1015.57 1015.01 1014.73 1014.81 1014.97 1015.09 1014.97 1014.85 1014.05 1013.77 1013.77 1013.77 1013.25 1012.85 1012.69 1012.53 1012.49 1012.37 1012.17 1011.97 1011.89 1011.77 1011.81 1011.77 1011.73 1011.65 1011.61 1011.57 1011.53 1011.53 1011.45 1011.41 1011.49 1011.49 1011.33 1011.17 1011.13 1011.13 1011.05 1011.01 1010.97 1010.89 1010.85 1010.89 1010.89 1010.85
1014.93 1015.09 1015.13 1015.33 1015.45 1015.57 1015.65 1015.77 1015.85 1015.81 1016.01 1016.05 1016.33 1016.29 1016.41 1016.49 1016.49 1016.53 1016.45 1016.45 1016.37 1016.29 1016.25 1016.29 1016.13 1015.77 1015.65 1015.37 1014.93 1014.73 1014.85 1015.17 1015.05 1014.73 1014.65 1014.77 1014.41 1014.01 1013.53 1013.33 1013.37 1012.97 1012.85 1012.69 1012.25 1011.85 1011.61 1011.41 1011.29 1011.21 1011.17 1011.09 1011.09 1011.05 1011.05 1011.01 1010.93 1010.81 1010.81 1010.81 1010.69 1010.53 1010.49 1010.53 1010.53 1010.49 1010.49 1010.41 1010.33 1010.25 1010.13 1010.09 1010.13 1010.17
1014.73 1014.81 1014.85 1015.05 1015.61 1016.17 1016.13 1015.89 1015.85 1015.77 1015.93 1016.21 1016.53 1016.69 1016.85 1017.05 1016.85 1016.41 1016.13 1016.09 1016.09 1016.05 1016.05 1016.01 1015.77 1015.73 1015.61 1015.29 1015.17 1015.21 1015.37 1015.73 1015.65 1014.57 1014.09 1014.13 1013.89 1013.61 1013.49 1013.13 1012.85 1012.77 1012.77 1012.41 1012.17 1011.93 1011.65 1011.45 1011.21 1010.93 1010.73 1010.45 1010.37 1010.25 1010.25 1010.09 1010.01 1009.93 1009.89 1009.81 1009.89 1009.97 1010.05 1010.01 1009.93 1009.85 1009.73 1009.65 1009.57 1009.49 1009.41 1009.37 1009.37 1009.45
1014.65 1014.69 1014.77 1015.01 1015.21 1015.57 1016.13 1015.97 1015.73 1015.69 1015.77 1016.01 1016.25 1016.41 1016.61 1016.65 1016.53 1016.33 1016.17 1016.09 1015.97 1015.93 1016.01 1015.93 1015.77 1015.73 1015.45 1015.09 1014.85 1014.81 1014.53 1014.25 1013.97 1014.05 1014.09 1014.29 1013.85 1013.65 1013.53 1013.21 1012.81 1012.37 1012.33 1012.25 1012.17 1011.81 1011.33 1011.25 1010.97 1010.69 1010.49 1010.09 1010.01 1009.81 1009.53 1009.21 1009.01 1009.01 1009.17 1009.33 1009.41 1009.37 1009.29 1009.25 1009.21 1009.13 1009.05 1008.97 1008.85 1008.73 1008.65 1008.61 1008.61 1008.69
1014.57 1014.49 1014.53 1014.73 1014.97 1015.33 1015.57 1015.57 1015.61 1015.61 1015.77 1015.73 1015.81 1016.01 1016.09 1016.13 1016.25 1016.29 1016.17 1015.93 1015.69 1015.77 1015.69 1015.45 1015.41 1015.33 1015.13 1014.77 1014.45 1014.37 1014.17 1013.93 1013.93 1014.01 1014.01 1013.97 1013.85 1013.93 1013.93 1013.73 1012.73 1012.09 1012.05 1012.13 1012.05 1011.73 1011.17 1011.01 1011.01 1010.57 1010.25 1009.93 1009.65 1009.21 1008.85 1008.81 1008.77 1008.73 1008.65 1008.57 1008.49 1008.49 1008.53 1008.53 1008.49 1008.45 1008.37 1008.29 1008.13 1008.01 1007.89 1007.89 1007.89 1007.89
1014.37 1014.45 1014.49 1014.49 1014.65 1014.85 1015.05 1015.13 1015.21 1015.25 1015.29 1015.41 1015.41 1015.37 1015.41 1015.53 1015.73 1015.77 1015.81 1015.69 1015.65 1015.57 1015.57 1015.45 1015.29 1015.09 1014.97 1014.73 1014.45 1014.25 1014.13 1014.21 1013.97 1013.85 1013.81 1013.81 1013.73 1013.65 1013.57 1013.29 1013.17 1012.09 1011.85 1012.09 1012.01 1011.53 1010.93 1010.65 1010.49 1010.13 1009.77 1009.41 1009.05 1008.65 1008.45 1008.25 1008.09 1007.93 1007.89 1007.93 1007.97 1007.93 1007.85 1007.81 1007.81 1007.73 1007.65 1007.49 1007.37 1007.21 1007.13 1007.09 1007.09 1007.09
1014.09 1014.21 1014.33 1014.41 1014.45 1014.53 1014.65 1014.81 1014.85 1014.81 1014.81 1014.81 1014.89 1014.97 1015.01 1015.05 1015.09 1015.25 1015.33 1015.17 1015.13 1015.05 1015.25 1015.29 1015.17 1014.97 1014.77 1015.01 1014.77 1014.29 1014.33 1014.21 1014.33 1013.89 1013.85 1013.57 1013.41 1013.29 1013.29 1012.85 1012.41 1011.97 1011.73 1011.97 1011.93 1011.45 1010.65 1010.37 1010.21 1009.85 1009.25 1008.81 1008.49 1008.17 1007.73 1007.57 1007.53 1007.45 1007.45 1007.41 1007.29 1007.25 1007.21 1007.17 1007.09 1006.93 1006.81 1006.65 1006.49 1006.37 1006.29 1006.29 1006.29 1006.29
1013.81 1013.97 1014.17 1014.37 1014.37 1014.21 1014.29 1014.41 1014.45 1014.41 1014.49 1014.53 1014.65 1014.77 1014.73 1014.65 1014.49 1014.53 1014.49 1014.49 1014.53 1014.65 1014.77 1014.77 1014.85 1014.53 1014.45 1014.65 1014.45 1014.17 1014.29 1014.33 1014.21 1014.05 1013.85 1013.61 1013.53 1013.37 1013.05 1012.49 1012.25 1011.73 1011.57 1011.77 1011.49 1011.05 1010.49 1010.01 1009.81 1009.45 1008.69 1008.09 1007.73 1007.45 1007.13 1007.09 1007.05 1006.97 1006.85 1006.73 1006.73 1006.73 1006.61 1006.49 1006.33 1006.17 1005.93 1005.73 1005.57 1005.49 1005.45 1005.41 1005.45 1005.45
1013.61 1013.69 1013.65 1013.65 1013.73 1013.77 1013.89 1013.97 1014.09 1014.17 1014.25 1014.41 1014.61 1014.53 1014.33 1014.21 1014.17 1014.01 1013.93 1013.81 1013.81 1014.13 1014.29 1014.29 1014.29 1014.17 1013.93 1013.81 1013.73 1013.73 1013.77 1013.89 1013.85 1013.81 1013.73 1013.53 1013.29 1012.93 1012.45 1012.13 1011.77 1011.37 1010.89 1010.81 1011.01 1010.97 1010.01 1009.41 1009.21 1008.69 1008.17 1007.61 1007.21 1006.93 1006.77 1006.69 1006.53 1006.37 1006.29 1006.25 1006.17 1006.05 1005.97 1005.85 1005.61 1005.37 1005.09 1004.81 1004.65 1004.53 1004.49 1004.49 1004.57 1004.65
1013.13 1013.17 1013.21 1013.29 1013.53 1013.65 1013.77 1013.77 1013.85 1014.01 1014.13 1014.29 1014.45 1014.49 1014.41 1014.25 1013.93 1013.69 1013.37 1013.29 1013.25 1013.21 1013.25 1013.41 1013.37 1013.21 1013.29 1013.53 1013.73 1013.73 1013.77 1013.73 1013.61 1013.41 1013.09 1012.93 1012.85 1012.85 1012.69 1012.41 1011.61 1011.21 1010.29 1010.13 1010.37 1010.21 1009.65 1008.93 1008.73 1008.17 1007.81 1007.53 1007.33 1006.89 1006.57 1006.17 1005.97 1005.77 1005.69 1005.65 1005.65 1005.57 1005.37 1005.05 1004.73 1004.41 1004.13 1003.85 1003.65 1003.53 1003.49 1003.53 1003.61 1003.77
1012.97 1013.01 1012.81 1013.05 1013.37 1013.49 1013.53 1013.77 1014.05 1014.25 1014.41 1014.61 1014.65 1014.53 1014.37 1014.13 1013.85 1013.53 1013.17 1012.97 1012.89 1012.93 1013.01 1013.05 1013.13 1013.29 1013.41 1013.45 1013.49 1013.49 1013.53 1013.53 1013.37 1013.45 1013.53 1013.41 1012.73 1012.45 1012.33 1011.85 1011.57 1011.05 1010.33 1009.65 1009.49 1009.37 1009.33 1008.73 1008.49 1008.13 1007.69 1007.61 1007.33 1006.81 1006.21 1005.65 1005.33 1005.25 1005.25 1005.25 1005.13 1004.85 1004.53 1004.17 1003.77 1003.41 1003.09 1002.81 1002.61 1002.45 1002.45 1002.49 1002.65 1002.89
1012.57 1012.41 1012.53 1012.77 1013.05 1013.33 1013.45 1013.85 1014.21 1014.41 1014.53 1014.41 1014.29 1014.21 1014.05 1013.93 1013.81 1013.49 1013.05 1012.77 1012.61 1012.65 1012.81 1013.01 1013.13 1013.13 1013.17 1013.17 1013.13 1013.13 1013.17 1013.01 1013.05 1013.29 1013.29 1012.41 1012.13 1012.25 1012.09 1011.81 1011.21 1010.53 1010.05 1009.53 1009.13 1009.29 1009.01 1008.53 1008.41 1008.21 1007.57 1007.33 1006.85 1006.21 1005.61 1005.29 1004.97 1004.89 1004.73 1004.57 1004.37 1004.05 1003.61 1003.17 1002.77 1002.45 1002.13 1001.85 1001.61 1001.45 1001.45 1001.57 1001.81 1002.13
1012.73 1012.45 1012.53 1012.93 1013.13 1013.37 1013.65 1014.09 1014.29 1014.41 1014.33 1014.09 1013.97 1013.89 1013.93 1013.85 1013.81 1013.33 1013.05 1013.09 1013.05 1013.01 1012.97 1012.85 1012.85 1012.89 1012.85 1012.73 1012.57 1012.41 1012.33 1012.13 1012.09 1012.21 1012.17 1011.85 1011.85 1011.89 1011.49 1010.97 1010.65 1010.49 1009.85 1009.17 1008.85 1009.49 1008.97 1008.85 1008.45 1008.53 1008.01 1007.53 1006.49 1005.93 1005.41 1005.09 1004.73 1004.49 1004.25 1003.85 1003.41 1003.01 1002.65 1002.17 1001.81 1001.49 1001.17 1000.93 1000.65 1000.49 1000.53 1000.65 1001.09 1001.33
1012.41 1012.29 1012.49 1012.93 1013.41 1013.69 1013.93 1014.13 1014.33 1014.37 1014.33 1014.05 1013.77 1013.65 1013.69 1013.69 1013.57 1013.41 1013.45 1013.29 1013.33 1013.33 1013.17 1013.01 1012.85 1012.81 1012.57 1012.17 1011.81 1011.41 1011.17 1010.97 1011.01 1011.17 1011.25 1011.21 1011.09 1010.81 1010.57 1010.49 1010.53 1010.45 1009.81 1009.05 1008.93 1009.33 1008.93 1008.85 1008.53 1008.21 1008.09 1007.89 1007.17 1005.85 1005.21 1004.69 1004.53 1004.13 1003.93 1003.61 1002.97 1002.09 1001.61 1001.21 1000.73 1000.37 1000.13 1000.01 999.81 999.69 999.65 999.81 1000.29 1000.61
1011.97 1012.21 1012.37 1012.41 1013.29 1013.69 1013.93 1014.13 1014.25 1014.29 1014.29 1014.29 1014.05 1013.73 1013.69 1014.01 1014.37 1014.13 1013.53 1013.33 1013.37 1013.29 1013.09 1012.93 1012.69 1012.33 1011.93 1011.69 1011.53 1011.33 1011.05 1010.57 1010.01 1009.85 1009.93 1010.01 1010.13 1010.45 1010.65 1010.69 1010.53 1010.17 1009.57 1009.13 1009.17 1009.41 1009.29 1008.85 1008.45 1008.05 1007.69 1007.45 1006.69 1006.09 1005.05 1004.49 1004.01 1003.85 1003.53 1003.21 1002.61 1001.49 1000.97 1000.33 999.93 999.53 999.33 999.17 999.01 998.93 998.97 999.09 999.45 999.77
1011.45 1011.49 1011.65 1012.41 1013.29 1013.57 1013.77 1013.93 1014.17 1014.33 1014.41 1014.57 1014.21 1013.97 1014.29 1014.45 1014.29 1014.09 1013.85 1013.53 1013.29 1013.05 1012.89 1012.61 1012.25 1012.09 1012.05 1012.05 1011.85 1011.37 1010.93 1010.65 1010.57 1010.53 1010.49 1010.41 1010.49 1010.53 1010.57 1010.57 1010.49 1010.25 1009.69 1009.09 1009.17 1009.25 1009.17 1008.69 1008.25 1007.97 1007.41 1007.09 1006.29 1005.85 1005.25 1004.29 1003.69 1003.53 1002.93 1002.65 1002.17 1001.21 1000.53 1000.01 999.53 999.09 998.73 998.41 998.09 998.05 998.09 998.29 998.61 998.93
1011.41 1011.25 1011.89 1012.57 1013.13 1013.41 1013.69 1013.97 1014.25 1014.41 1014.49 1014.37 1014.09 1014.21 1014.25 1014.41 1014.41 1014.17 1013.65 1013.49 1013.41 1013.21 1012.85 1012.49 1012.37 1012.33 1012.25 1012.01 1011.57 1011.25 1011.21 1011.01 1010.85 1010.85 1010.81 1010.77 1010.69 1010.53 1010.29 1010.05 1009.85 1009.65 1009.21 1008.97 1008.77 1008.69 1008.77 1008.41 1007.73 1007.61 1007.25 1006.73 1006.29 1005.49 1005.09 1004.69 1003.17 1002.57 1002.57 1002.01 1001.45 1000.61 999.97 999.57 999.13 998.57 998.09 997.73 997.37 997.29 997.29 997.41 997.81 998.17
1011.49 1011.29 1011.73 1012.53 1013.17 1013.49 1013.77 1014.17 1014.33 1014.45 1014.37 1014.05 1014.13 1014.29 1014.41 1014.33 1014.25 1013.93 1013.65 1013.45 1013.25 1012.93 1012.45 1012.41 1012.37 1012.17 1011.81 1011.61 1011.53 1011.41 1011.25 1011.17 1011.13 1011.13 1010.97 1010.73 1010.45 1010.17 1009.93 1009.69 1009.45 1009.13 1008.89 1008.65 1008.33 1008.09 1008.05 1007.89 1007.49 1007.05 1006.73 1006.37 1006.25 1005.93 1005.05 1003.89 1003.77 1003.29 1002.65 1001.25 1000.69 1000.13 999.53 999.05 998.53 998.01 997.49 997.13 996.81 996.45 996.57 996.93 997.33 997.89
1011.73 1011.97 1012.37 1012.93 1013.41 1013.77 1014.09 1014.25 1014.41 1014.37 1014.21 1014.09 1014.13 1014.25 1014.25 1014.25 1013.77 1013.53 1013.45 1013.21 1012.65 1012.49 1012.69 1012.57 1012.25 1011.93 1011.73 1011.57 1011.45 1011.25 1011.25 1011.25 1011.13 1010.93 1010.61 1010.33 1010.13 1009.85 1009.57 1009.33 1009.01 1008.77 1008.45 1008.01 1007.69 1007.45 1007.33 1007.29 1007.05 1006.49 1006.37 1006.29 1006.25 1005.77 1005.45 1004.45 1003.65 1002.77 1002.29 1001.81 1000.69 999.69 999.33 998.73 998.21 997.73 997.29 996.85 996.45 996.17 996.21 996.05 996.37 996.81
1012.41 1012.61 1013.01 1013.45 1013.93 1014.13 1014.13 1014.01 1013.73 1013.45 1013.41 1013.73 1013.97 1014.01 1014.09 1013.69 1013.37 1013.21 1012.93 1012.57 1012.53 1012.69 1012.57 1012.37 1012.29 1012.05 1011.69 1011.49 1011.33 1011.37 1011.33 1011.21 1010.97 1010.73 1010.53 1010.29 1010.01 1009.77 1009.53 1009.29 1008.85 1008.37 1007.89 1007.45 1007.21 1007.01 1006.85 1006.61 1006.45 1006.37 1006.29 1006.09 1005.97 1005.61 1005.05 1004.45 1003.29 1002.53 1001.97 1001.61 1000.85 999.65 999.05 998.65 998.09 997.57 997.13 996.61 996.05 995.61 995.33 995.25 995.29 995.81
1012.49 1013.09 1013.21 1013.29 1013.29 1013.09 1013.37 1013.25 1013.17 1013.21 1013.33 1013.41 1013.53 1013.37 1013.21 1013.01 1012.85 1012.57 1012.29 1012.37 1012.65 1012.69 1012.69 1012.53 1012.25 1011.93 1011.73 1011.57 1011.53 1011.37 1011.13 1010.97 1010.65 1010.37 1010.29 1010.21 1009.93 1009.77 1009.53 1009.29 1008.81 1008.25 1007.61 1007.13 1006.81 1006.65 1006.57 1006.37 1006.17 1006.13 1006.29 1005.97 1005.65 1005.33 1004.69 1004.21 1003.49 1002.41 1001.61 1001.13 1000.69 1000.41 999.13 998.53 997.81 997.21 996.65 996.17 995.73 995.33 994.69 994.61 994.69 995.09
1011.89 1012.45 1012.89 1013.09 1012.97 1012.93 1013.17 1013.21 1013.13 1013.01 1012.89 1012.77 1012.57 1012.29 1012.13 1012.17 1012.13 1011.97 1011.97 1012.29 1012.57 1012.69 1012.45 1012.05 1012.01 1011.97 1011.85 1011.73 1011.37 1011.13 1010.93 1010.69 1010.49 1010.29 1010.21 1010.17 1010.01 1009.77 1009.45 1009.21 1008.81 1008.25 1007.69 1007.09 1006.73 1006.37 1006.25 1006.05 1005.93 1005.85 1005.85 1005.85 1005.69 1004.97 1004.41 1003.81 1003.17 1002.25 1001.53 1000.85 1000.37 999.81 999.29 998.73 997.93 997.17 996.57 996.01 995.41 994.69 994.21 993.89 994.09 994.53
1011.69 1011.89 1011.97 1011.97 1012.21 1012.29 1012.37 1012.37 1012.37 1012.21 1012.17 1012.33 1012.01 1011.97 1012.09 1012.01 1011.93 1011.89 1011.81 1011.77 1011.81 1011.81 1011.77 1012.01 1012.09 1011.97 1011.69 1011.49 1011.25 1011.05 1010.81 1010.61 1010.45 1010.17 1010.13 1010.01 1009.93 1009.57 1009.25 1009.01 1008.57 1008.17 1007.81 1007.29 1006.81 1006.45 1006.17 1005.81 1005.57 1005.53 1005.53 1005.41 1005.17 1004.81 1004.33 1003.49 1002.57 1002.13 1001.69 1000.89 1000.29 999.69 999.01 998.41 997.97 997.25 996.49 995.93 995.29 994.65 994.29 993.85 993.69 993.89
1011.01 1011.13 1011.21 1011.33 1011.41 1011.61 1011.73 1011.77 1011.69 1011.41 1011.21 1011.25 1011.37 1011.53 1011.57 1011.61 1011.45 1011.41 1011.29 1011.29 1011.29 1011.29 1011.77 1012.05 1011.93 1011.73 1011.57 1011.41 1011.17 1010.97 1010.81 1010.53 1010.33 1010.09 1010.09 1009.85 1009.49 1009.37 1008.97 1008.65 1008.33 1007.89 1007.65 1007.25 1006.81 1006.53 1006.09 1005.73 1005.45 1005.33 1005.21 1005.05 1004.61 1004.37 1004.01 1003.57 1002.85 1002.21 1001.65 1001.01 1000.33 999.73 998.93 998.29 997.65 997.09 996.61 996.17 995.61 995.01 994.49 994.13 993.49 993.41
1011.05 1011.01 1011.09 1011.13 1011.09 1011.13 1011.13 1011.17 1011.05 1011.01 1011.13 1011.29 1011.45 1011.45 1011.37 1011.41 1011.45 1011.21 1011.01 1011.01 1011.41 1011.85 1012.01 1011.93 1011.77 1011.53 1011.37 1011.29 1011.09 1010.89 1010.69 1010.53 1010.33 1010.05 1009.73 1009.45 1009.21 1008.93 1008.65 1008.49 1008.13 1007.85 1007.53 1007.13 1006.73 1006.41 1006.13 1005.65 1005.41 1005.37 1005.21 1004.93 1004.49 1003.65 1003.25 1003.05 1002.89 1002.29 1001.57 1000.97 1000.41 999.81 999.09 998.41 997.77 997.05 996.45 995.81 995.33 995.05 994.49 994.05 993.57 993.13
1010.89 1010.73 1010.81 1010.89 1010.93 1010.93 1010.97 1010.85 1010.81 1010.93 1011.05 1011.25 1011.45 1011.45 1011.45 1011.01 1010.77 1011.29 1011.57 1012.01 1012.13 1012.09 1012.01 1011.77 1011.53 1011.45 1011.29 1011.05 1010.85 1010.73 1010.61 1010.49 1010.21 1009.93 1009.69 1009.41 1009.09 1008.73 1008.45 1008.21 1007.93 1007.53 1007.17 1006.85 1006.53 1006.13 1005.81 1005.65 1005.49 1005.77 1005.69 1005.25 1004.93 1004.21 1003.17 1002.61 1002.57 1002.33 1001.85 1001.09 1000.37 999.89 999.17 998.49 997.77 997.21 996.65 996.13 995.65 995.17 994.57 994.01 993.73 993.21
1010.89 1010.65 1010.61 1010.65 1010.61 1010.49 1010.57 1010.77 1010.93 1011.09 1011.17 1011.05 1011.13 1011.33 1011.13 1010.85 1011.45 1011.57 1011.61 1011.93 1012.09 1012.01 1011.77 1011.69 1011.45 1011.17 1011.01 1010.81 1010.73 1010.69 1010.49 1010.33 1010.13 1009.89 1009.65 1009.21 1008.93 1008.61 1008.37 1008.05 1007.73 1007.33 1006.97 1006.57 1006.21 1005.93 1005.77 1005.57 1005.41 1005.73 1005.77 1005.49 1005.05 1004.49 1003.53 1002.57 1002.13 1001.97 1001.81 1001.37 1000.61 1000.01 999.37 998.53 997.81 997.05 996.61 996.33 995.65 995.17 994.73 994.09 993.61 993.25
1010.69 1010.53 1010.53 1010.21 1010.21 1010.33 1010.45 1010.57 1010.73 1011.01 1011.17 1011.25 1011.25 1011.13 1010.77 1010.85 1011.37 1011.65 1011.69 1011.81 1011.77 1011.49 1011.29 1011.21 1011.13 1011.01 1010.85 1010.81 1010.85 1010.65 1010.45 1010.17 1009.97 1009.77 1009.45 1009.13 1008.89 1008.65 1008.45 1008.17 1007.73 1007.37 1007.05 1006.45 1005.97 1005.73 1005.61 1005.61 1005.41 1005.45 1005.53 1005.41 1005.09 1004.41 1003.65 1002.65 1002.25 1001.65 1001.41 1001.33 1000.97 1000.29 999.57 998.89 998.25 997.61 996.69 996.13 996.01 995.37 994.93 994.37 993.57 993.25
1010.77 1010.69 1010.65 1010.45 1010.37 1010.45 1010.65 1010.93 1011.13 1011.33 1011.33 1011.29 1011.05 1010.33 1009.89 1010.69 1011.49 1011.77 1011.73 1011.65 1011.49 1011.49 1011.45 1011.37 1011.17 1011.01 1011.05 1010.93 1010.69 1010.49 1010.33 1010.17 1009.97 1009.73 1009.41 1009.05 1008.89 1008.73 1008.49 1008.09 1007.81 1007.33 1006.85 1006.25 1005.85 1005.65 1005.49 1005.41 1005.41 1005.49 1005.53 1005.49 1005.25 1004.81 1004.25 1003.53 1002.61 1001.73 1001.33 1001.09 1000.97 1000.49 999.81 999.37 998.69 997.93 997.41 996.69 995.89 995.25 994.65 993.93 993.21 992.85
1010.61 1010.53 1010.41 1010.41 1010.53 1010.73 1011.01 1011.13 1011.33 1011.45 1011.45 1011.21 1010.85 1010.77 1010.89 1011.25 1011.89 1011.97 1011.81 1011.61 1011.49 1011.61 1011.65 1011.49 1011.25 1011.13 1010.89 1010.65 1010.53 1010.33 1010.17 1010.05 1009.89 1009.57 1009.29 1009.09 1008.89 1008.69 1008.37 1008.13 1007.85 1007.25 1006.65 1006.33 1006.09 1005.73 1005.53 1005.45 1005.37 1005.37 1005.33 1005.13 1004.81 1004.33 1003.85 1003.37 1002.65 1001.97 1001.45 1000.93 1000.65 1000.53 1000.17 999.61 999.01 998.45 997.77 997.37 996.77 995.89 994.89 993.93 993.49 992.77
1010.05 1010.37 1010.53 1010.73 1010.89 1011.01 1011.17 1011.25 1011.33 1011.29 1011.21 1011.05 1011.09 1011.69 1011.81 1011.53 1012.13 1012.21 1011.89 1011.85 1012.01 1012.01 1011.77 1011.45 1011.17 1010.97 1010.73 1010.57 1010.45 1010.33 1010.21 1010.01 1009.77 1009.45 1009.25 1009.09 1008.85 1008.57 1008.33 1008.09 1007.57 1007.01 1006.77 1006.37 1006.09 1005.81 1005.61 1005.37 1005.05 1004.97 1004.89 1004.65 1004.29 1003.85 1003.41 1002.97 1002.57 1001.97 1001.53 1000.97 1000.49 1000.21 999.89 999.61 999.29 998.85 998.33 997.73 997.33 996.57 995.77 994.89 994.01 993.09
1010.17 1010.29 1010.49 1010.69 1010.93 1011.05 1011.17 1011.29 1011.17 1011.01 1011.01 1010.97 1010.81 1010.25 1009.93 1011.25 1011.97 1011.97 1012.05 1011.97 1012.01 1011.93 1011.65 1011.25 1010.89 1010.81 1010.65 1010.53 1010.33 1010.25 1010.17 1009.97 1009.69 1009.49 1009.33 1009.09 1008.77 1008.41 1008.13 1007.81 1007.49 1007.13 1006.85 1006.45 1006.05 1005.77 1005.29 1004.93 1004.89 1004.85 1004.65 1004.49 1004.33 1004.37 1004.09 1003.77 1003.29 1002.49 1001.97 1001.37 1000.65 1000.17 999.85 999.45 999.05 998.73 998.41 998.09 997.69 997.05 996.45 995.41 994.65 993.69
1010.05 1010.45 1010.65 1010.77 1010.85 1011.01 1011.05 1011.09 1011.09 1010.93 1010.81 1010.85 1011.13 1010.89 1011.09 1011.85 1011.77 1011.69 1011.53 1011.33 1011.25 1011.21 1011.05 1010.89 1010.85 1010.77 1010.61 1010.45 1010.33 1010.25 1010.09 1009.85 1009.69 1009.61 1009.37 1009.01 1008.69 1008.45 1008.09 1007.77 1007.49 1007.13 1006.77 1006.29 1005.85 1005.57 1005.17 1004.81 1004.77 1004.77 1004.65 1004.49 1004.49 1004.53 1004.45 1004.01 1003.61 1003.05 1002.37 1001.73 1001.09 1000.45 999.89 999.41 999.05 998.73 998.37 998.05 998.01 997.97 997.69 997.17 996.41 994.85
1010.09 1010.37 1010.53 1010.65 1010.81 1010.97 1011.25 1011.29 1011.29 1011.37 1011.45 1011.49 1011.29 1011.37 1011.73 1011.73 1011.57 1011.37 1011.21 1011.13 1011.13 1011.01 1010.97 1011.01 1010.93 1010.77 1010.61 1010.49 1010.37 1010.25 1010.05 1009.89 1009.81 1009.57 1009.21 1008.89 1008.61 1008.33 1008.05 1007.69 1007.37 1007.05 1006.69 1006.29 1006.01 1005.61 1005.17 1004.89 1004.61 1004.53 1004.57 1004.49 1004.41 1004.41 1004.33 1004.09 1003.73 1003.37 1002.89 1002.29 1001.49 1000.81 1000.25 999.65 999.09 998.61 998.21 997.97 997.77 997.49 997.25 996.97 996.49 995.77
1009.81 1010.01 1010.21 1010.33 1010.45 1010.57 1010.65 1010.85 1011.01 1011.13 1011.21 1010.77 1010.81 1011.53 1011.57 1011.53 1011.45 1011.25 1011.09 1011.05 1011.01 1011.01 1011.05 1010.97 1010.85 1010.73 1010.65 1010.57 1010.53 1010.41 1010.09 1009.93 1009.65 1009.29 1009.05 1008.77 1008.53 1008.25 1007.93 1007.65 1007.37 1007.09 1006.77 1006.45 1006.25 1005.77 1005.29 1005.05 1004.73 1004.53 1004.57 1004.41 1004.21 1004.29 1004.21 1004.17 1004.05 1003.65 1003.17 1002.61 1002.01 1001.41 1000.85 1000.25 999.77 999.33 998.85 998.37 997.89 997.61 997.21 996.77 996.13 995.37
Wind_Speed
6 5 7 6 5 6 5 5 5 5 4 4 5 5 5 5 6 6 6 6 7 7 8 7 3 3 3 4 5 5 6 7 7 8 8 9 8 7 14 14 15 14 14 13 13 13 13 12 12 14 14 14 14 14 14 14 15 15 15 16 17 17 17 17 18 18 18 17 17 17 18 19 20 20
5 6 6 5 6 5 6 6 6 5 3 4 5 4 5 5 6 6 6 7 6 7 7 8 6 3 2 4 6 6 7 9 10 9 10 10 9 11 8 13 14 13 13 14 14 14 14 14 14 14 14 14 15 15 15 15 15 16 16 16 17 17 18 17 17 18 19 19 18 17 18 19 19 20
6 6 7 6 6 6 6 6 6 5 4 5 5 5 4 5 5 6 6 7 5 5 7 7 8 8 7 7 8 8 7 6 8 9 9 9 11 10 9 10 13 14 15 15 16 16 15 15 16 16 15 14 15 15 15 15 16 17 17 18 18 18 17 17 17 18 19 19 19 19 19 19 19 20
7 7 7 6 6 6 6 6 5 5 5 5 4 5 5 5 5 5 6 7 9 6 7 7 8 10 7 6 7 8 7 7 9 8 9 10 10 9 10 13 15 17 17 18 18 18 17 17 17 17 16 15 14 15 15 15 16 17 18 18 18 18 18 17 18 18 19 20 20 20 20 20 21 21
8 7 7 7 7 7 7 6 6 5 5 5 5 5 5 5 4 4 5 7 8 8 6 6 8 8 8 8 7 8 8 8 7 9 9 10 10 9 9 10 12 14 17 19 19 19 19 18 19 19 18 18 15 15 16 18 18 18 19 19 20 19 19 19 19 19 19 19 20 21 22 22 22 23
7 7 8 8 7 7 8 7 7 6 6 6 5 5 5 5 6 4 5 6 8 9 8 8 8 9 9 9 6 8 8 9 8 10 9 8 9 9 10 10 10 12 12 15 17 19 19 19 19 19 19 19 19 19 19 19 20 20 20 20 20 20 20 20 20 21 21 21 20 21 22 22 22 23
8 9 8 9 8 6 7 7 7 7 7 6 6 6 5 5 6 6 6 7 8 9 8 8 9 8 8 9 8 8 7 8 9 10 10 9 9 8 10 10 10 10 9 9 11 15 17 18 19 20 20 20 20 19 20 21 21 21 21 21 20 21 22 21 21 21 21 22 22 21 21 22 23 24
8 9 9 8 8 7 7 7 7 6 6 6 6 6 6 6 7 6 7 7 8 8 10 9 8 8 9 8 9 8 8 9 9 9 9 9 10 10 9 10 10 10 13 13 13 14 16 18 19 20 21 21 20 20 21 21 21 22 22 22 22 22 22 22 21 21 22 23 23 23 23 22 23 23
8 8 8 8 7 6 7 7 7 7 7 6 6 7 6 6 7 8 7 7 8 9 11 9 8 9 9 8 9 9 9 9 9 9 9 10 9 9 10 10 9 11 14 16 17 16 15 17 18 20 21 21 21 22 22 22 23 22 22 23 23 23 22 22 22 22 23 23 23 24 25 24 23 25
8 6 7 8 8 7 7 7 7 7 8 7 7 8 6 7 7 8 11 12 10 9 5 4 9 10 10 9 8 9 9 9 9 8 9 9 8 7 9 10 9 9 8 8 8 12 16 19 21 21 21 22 23 23 23 23 23 23 23 24 23 23 23 23 23 24 24 23 22 23 23 24 24 25
7 7 6 7 7 7 7 7 7 7 8 6 6 4 5 8 3 3 6 8 7 7 6 6 8 9 9 9 10 8 8 10 9 11 8 8 8 8 8 8 9 10 11 12 13 14 15 16 15 16 19 22 24 24 24 23 23 23 24 23 23 23 24 25 24 24 24 23 22 23 23 23 24 22
6 7 8 7 6 5 6 7 7 7 6 5 6 6 7 8 8 6 6 7 8 8 8 9 10 9 9 8 9 8 7 7 8 8 9 10 9 9 8 9 9 9 10 11 11 11 12 14 18 21 21 21 21 21 21 23 23 24 23 23 24 26 25 24 24 24 23 23 23 23 24 24 23 23
6 6 7 4 8 11 18 13 8 7 6 4 5 6 6 8 10 9 8 8 8 7 8 9 9 10 10 10 8 7 5 7 10 10 9 10 9 9 10 8 8 9 11 11 12 11 10 12 12 11 10 10 14 17 19 17 22 23 25 25 23 22 21 22 23 24 24 24 24 24 24 24 23 23
6 6 5 4 6 7 17 4 2 3 5 3 3 6 7 9 10 9 7 7 7 7 8 9 10 11 11 10 9 10 10 10 10 10 9 10 9 10 10 9 8 8 10 11 10 10 10 11 12 11 11 11 11 12 13 12 15 14 11 13 17 20 22 22 22 23 23 23 24 24 23 24 24 23
8 6 6 5 8 10 6 1 1 4 8 9 9 13 14 12 9 9 8 8 8 9 10 10 11 12 12 11 10 10 11 11 10 9 9 10 10 10 11 12 8 6 8 9 11 11 10 10 12 12 13 13 15 14 14 16 16 16 17 19 19 17 16 17 18 19 21 22 23 24 24 24 24 24
7 7 6 5 3 4 4 4 5 6 10 13 14 15 14 12 15 13 9 7 8 10 10 11 11 11 10 10 10 11 11 9 9 9 10 10 11 12 11 11 11 7 8 11 12 13 9 10 13 13 12 12 13 15 17 19 20 21 22 18 15 16 16 17 18 20 22 24 25 25 25 25 25 25
7 6 5 5 4 4 9 8 8 8 9 13 15 13 12 13 13 14 15 13 11 9 10 11 12 11 8 7 8 9 9 9 12 11 10 10 10 10 11 11 11 10 9 11 12 13 12 12 12 14 11 13 13 15 18 18 16 15 14 15 17 17 17 18 21 23 25 26 27 26 25 25 25 25
7 6 5 5 7 7 7 8 10 9 10 9 8 8 9 9 11 13 15 16 18 15 11 10 10 9 6 7 8 7 7 10 11 11 12 11 12 12 13 13 13 12 10 12 13 15 13 12 13 14 15 14 12 12 16 17 17 18 18 16 14 15 18 22 24 26 26 27 26 26 26 26 26 26
6 7 8 8 8 7 8 8 10 10 9 8 7 9 8 8 8 9 10 10 8 8 9 9 9 9 9 9 8 7 8 10 10 9 11 13 13 13 14 14 13 13 11 12 12 15 13 12 14 14 15 14 14 13 15 18 19 17 13 13 16 19 21 22 25 26 27 27 26 26 27 26 26 26
8 9 9 7 7 7 7 6 9 6 4 5 6 6 7 9 10 10 8 8 9 10 9 9 11 11 8 5 8 9 9 9 9 10 11 11 11 11 11 12 12 12 11 9 11 13 14 13 15 15 13 14 15 14 15 18 19 18 17 17 17 19 22 25 26 27 27 28 27 26 27 27 27 26
7 8 7 6 6 6 6 6 6 4 2 5 6 7 7 8 10 9 7 10 12 11 11 10 7 5 7 11 12 13 14 11 10 9 10 11 11 12 13 13 12 12 11 12 12 14 15 12 13 15 14 14 15 16 16 15 17 15 13 17 21 24 25 25 26 27 27 28 28 27 27 27 26 27
6 5 6 4 6 6 4 8 7 6 5 7 6 7 8 9 9 9 8 8 5 12 10 6 7 9 11 13 15 15 15 16 12 8 11 12 10 11 11 12 12 13 13 13 12 12 13 13 12 14 13 13 13 15 14 13 13 15 18 21 21 23 24 26 26 26 26 27 27 27 27 26 24 18
5 5 5 7 2 1 5 9 6 6 6 6 6 7 8 9 9 9 8 7 9 7 6 7 6 7 10 11 10 10 18 21 17 12 13 12 11 11 11 13 13 14 12 10 10 12 12 13 12 12 13 13 12 12 13 13 12 11 12 13 16 22 24 25 24 25 26 27 28 28 26 24 22 13
6 6 5 6 9 9 9 7 6 5 4 4 6 7 7 9 9 6 6 7 7 8 8 9 9 10 11 12 12 12 11 10 12 14 13 12 11 11 12 13 12 13 12 10 12 12 12 13 14 11 12 14 14 12 12 11 11 11 12 13 15 20 21 20 19 23 24 23 25 25 24 23 21 12
5 6 7 5 10 10 9 7 7 4 4 3 4 6 6 4 4 7 7 8 9 9 9 9 9 10 10 10 11 11 10 12 11 10 9 9 10 10 11 12 14 14 14 12 11 11 12 12 14 13 13 12 14 15 15 15 13 9 11 12 15 17 15 15 13 14 15 18 20 23 22 22 24 18
5 4 5 6 8 10 9 7 6 4 3 3 5 0 4 3 6 6 7 7 7 8 8 9 10 10 10 10 10 11 11 11 9 8 9 9 11 11 13 13 13 14 14 12 13 12 13 13 13 14 14 12 15 14 14 13 13 9 13 14 16 17 16 15 14 14 12 12 11 13 17 23 23 26
4 4 6 7 12 10 9 8 6 5 3 5 2 5 5 4 5 5 5 6 7 8 9 10 10 10 10 11 11 11 10 8 8 8 9 11 13 12 12 12 12 13 14 14 14 13 12 13 13 13 13 12 13 15 15 13 16 13 13 12 16 17 15 14 15 15 13 12 11 16 19 23 24 25
2 3 6 7 11 9 9 7 7 5 5 3 3 2 3 4 3 5 6 7 8 9 9 9 9 10 10 10 9 8 8 8 8 10 11 11 11 11 11 12 14 14 15 15 14 14 12 12 11 12 12 12 13 14 17 16 14 14 15 16 15 15 14 14 14 14 13 13 13 10 7 9 12 14
5 10 13 13 9 9 8 7 6 5 7 10 8 5 4 4 5 5 6 8 9 9 8 9 9 9 8 8 8 7 8 10 10 10 9 9 10 11 12 12 12 12 11 11 12 12 11 10 10 8 9 9 12 13 14 16 16 15 14 15 15 12 13 14 13 13 13 13 13 11 8 10 11 14
12 12 11 10 9 8 8 6 5 5 5 9 8 8 7 5 6 7 8 8 8 9 9 8 8 8 8 8 8 9 10 9 9 8 9 9 10 10 10 11 11 11 12 12 12 10 9 9 8 9 10 9 10 14 15 16 16 14 14 13 13 13 10 10 11 11 11 11 12 11 10 11 12 13
7 8 7 7 7 4 9 7 4 4 5 5 6 7 8 7 7 8 7 6 7 8 8 8 8 8 8 9 9 9 8 8 8 7 8 9 10 10 10 11 12 12 11 11 11 10 10 10 9 9 10 9 10 14 15 15 16 17 15 11 10 11 12 13 12 12 12 12 12 12 14 13 11 13
8 7 7 7 5 4 4 5 5 6 6 7 7 7 6 5 7 8 4 4 7 8 8 9 8 8 8 9 9 8 8 8 8 8 8 9 10 10 10 10 10 11 11 11 11 9 9 8 8 8 9 9 10 13 14 13 14 15 14 12 11 10 10 11 13 13 14 14 12 11 11 12 12 12
7 6 6 4 5 5 5 5 5 6 7 9 8 7 6 6 6 6 8 7 6 8 9 7 7 9 9 8 8 8 8 8 8 8 8 8 9 10 9 10 11 11 11 12 11 9 8 8 7 8 8 10 11 12 12 12 13 12 13 13 13 14 13 12 11 13 14 14 12 10 6 7 11 12
5 4 4 4 5 5 6 6 7 8 6 6 6 5 5 6 7 7 7 8 8 6 5 7 9 8 8 8 7 8 8 8 8 8 9 9 9 9 10 10 10 10 11 12 11 11 9 8 8 7 8 9 10 9 10 10 12 12 13 12 12 13 11 12 12 14 13 11 12 12 8 10 10 11
5 5 6 5 5 5 5 7 7 6 6 5 6 6 6 7 8 8 8 6 4 4 7 8 8 8 7 8 8 8 8 9 9 9 8 9 9 9 10 10 11 11 11 12 12 10 9 9 9 9 9 9 10 10 7 9 8 11 13 11 12 12 14 13 14 14 14 12 11 10 9 9 10 10
4 5 5 5 5 5 7 7 6 6 6 5 6 6 8 8 7 7 6 4 5 7 8 8 7 7 7 7 7 8 8 9 9 9 9 9 9 9 9 10 11 11 11 11 11 11 10 11 9 7 10 12 11 12 11 4 8 7 11 12 12 11 12 14 13 12 11 12 12 12 10 10 7 7
5 6 6 6 6 6 6 5 6 5 6 7 6 7 9 7 7 7 6 4 6 7 7 6 7 7 7 7 7 8 8 8 9 9 9 9 9 9 10 10 11 11 12 11 11 10 9 9 8 6 8 11 12 13 12 11 10 6 6 12 13 11 13 14 13 12 10 10 11 10 10 10 9 6
5 6 6 6 6 6 6 6 5 5 6 6 6 8 8 7 7 7 6 6 7 6 6 6 7 7 6 7 7 8 8 8 8 9 9 9 9 9 10 10 11 11 11 12 11 9 7 7 8 8 9 11 12 13 15 11 11 10 11 10 11 14 13 14 14 12 13 12 11 11 10 11 10 6
5 5 5 6 5 4 4 4 4 5 6 7 9 10 7 6 7 7 7 7 7 6 6 6 7 6 7 7 7 7 8 8 9 9 9 9 9 9 10 10 11 11 11 11 11 11 9 7 8 7 6 9 11 12 12 13 12 11 11 12 8 10 12 13 12 11 11 13 14 12 9 8 11 9
5 5 5 6 5 3 3 2 3 5 7 8 8 6 6 6 7 8 8 7 5 5 6 7 7 6 7 7 7 7 8 9 9 9 9 9 9 10 10 10 11 11 11 11 12 11 10 8 6 5 5 6 7 8 8 9 10 8 9 12 15 12 11 10 13 12 11 12 11 10 11 10 8 4
4 3 3 3 4 4 4 5 5 6 7 7 8 7 8 7 6 8 7 6 5 6 7 7 6 6 7 6 7 7 8 8 8 9 9 9 10 10 11 11 10 10 11 12 11 11 11 9 7 4 6 6 8 8 8 10 12 12 14 13 15 17 17 14 10 10 10 11 12 11 10 10 10 8
4 4 2 3 4 4 4 5 6 6 6 6 7 8 6 5 7 5 6 7 6 7 7 7 6 6 6 6 7 7 8 8 8 9 9 9 10 10 10 10 10 10 11 11 11 11 10 7 6 7 7 7 8 9 11 12 13 14 12 11 11 13 16 17 17 15 11 9 13 12 10 9 8 8
3 3 4 3 3 3 5 5 6 7 6 5 5 6 5 6 8 6 6 6 5 5 6 5 5 6 6 6 6 7 8 8 8 9 10 10 10 10 10 10 10 11 11 11 10 11 9 8 4 6 7 7 7 8 10 10 9 11 12 12 12 12 12 14 15 14 14 11 10 10 8 7 8 6
4 4 4 4 4 2 2 5 5 5 6 7 7 7 6 7 6 6 5 5 5 5 4 5 5 6 6 6 7 7 7 8 8 9 9 9 9 9 10 10 10 10 10 10 11 11 10 9 6 5 6 8 7 9 11 10 10 11 12 12 11 13 14 13 12 11 12 13 19 19 16 12 9 10
5 5 5 5 5 5 5 4 6 5 7 7 5 5 6 6 6 6 6 5 5 5 5 5 5 5 5 6 7 7 7 8 9 8 9 9 9 9 9 10 10 10 10 10 11 11 10 9 8 8 8 7 7 7 10 10 10 10 11 12 13 13 12 13 14 13 11 13 17 22 19 15 18 21
Wind_Direction
270 265 241 226 243 267 276 269 268 261 264 269 265 261 273 272 276 291 293 298 302 303 305 307 324 190 170 212 238 238 252 266 265 265 269 265 275 227 204 215 217 220 225 228 234 241 249 252 250 251 253 255 258 261 263 266 269 271 273 275 276 278 278 279 280 279 279 276 272 271 273 274 273 272
255 250 265 277 265 245 240 245 251 254 260 269 267 275 272 266 284 292 289 292 292 294 300 296 300 327 268 227 223 230 242 235 230 251 258 262 262 268 231 216 220 223 228 235 239 242 245 249 252 254 254 253 254 255 258 262 266 269 269 271 272 274 274 274 273 273 275 275 273 270 268 268 269 270
248 250 254 254 255 253 257 265 268 273 265 259 268 276 276 281 282 289 293 292 288 295 299 299 295 301 305 293 288 285 276 262 251 261 263 261 261 264 255 218 217 221 228 234 242 247 247 245 246 250 250 247 249 252 252 254 260 264 267 268 269 269 271 272 271 271 271 271 271 269 268 267 266 265
246 244 244 243 252 258 265 264 263 270 270 271 273 276 286 290 287 289 289 290 296 304 303 303 300 293 296 294 282 277 274 257 228 249 257 263 265 261 261 251 221 222 228 236 240 243 244 243 243 242 243 243 242 251 254 254 255 259 264 268 269 270 270 270 270 269 267 267 267 267 266 265 265 264
261 267 258 253 251 257 264 267 271 272 277 282 275 264 266 275 278 281 292 294 297 298 301 301 302 302 298 286 276 276 272 272 268 253 250 253 260 263 262 265 252 233 229 233 234 236 237 239 240 241 242 245 245 247 252 258 261 262 264 266 267 268 267 266 267 266 264 263 262 261 263 263 263 263
249 249 251 249 249 248 255 263 266 270 269 266 269 278 286 291 294 284 283 281 288 292 302 298 296 295 292 284 264 267 275 274 272 269 270 270 262 263 265 264 265 252 232 227 231 233 234 235 237 241 244 246 247 248 250 253 256 259 261 261 261 262 262 261 262 264 265 265 261 259 259 260 260 261
241 243 245 246 247 244 252 254 255 251 255 265 277 279 276 272 278 287 279 272 269 277 276 279 284 287 294 292 297 291 283 284 280 279 279 274 274 265 262 265 267 270 267 249 229 231 234 234 236 239 242 246 247 247 248 251 254 256 257 256 256 256 259 261 261 261 263 265 265 261 257 257 256 258
234 242 246 254 258 252 252 255 257 264 262 263 258 263 266 265 263 258 261 254 259 256 269 267 274 288 288 290 294 296 292 286 287 285 280 273 270 270 271 268 270 268 261 252 241 230 228 230 232 236 240 242 244 246 248 250 252 253 253 254 254 254 256 258 260 260 261 262 263 264 261 258 256 255
245 247 252 256 257 254 260 265 267 262 262 263 276 287 282 265 255 260 270 266 258 261 265 286 299 289 283 286 285 288 293 294 289 286 282 282 278 273 275 279 272 266 255 245 241 240 235 233 234 238 242 242 242 245 248 248 248 249 250 250 252 255 256 256 256 258 258 259 259 261 262 260 256 257
240 247 254 255 254 252 255 266 269 273 275 278 276 280 303 314 330 356 328 304 304 305 321 346 289 281 278 284 282 285 288 298 297 290 285 278 276 272 278 277 276 279 281 288 260 234 233 238 240 244 243 242 243 245 246 246 245 245 247 248 249 252 255 254 253 253 256 257 257 259 260 260 258 256
229 236 241 240 249 256 257 262 270 271 275 277 297 310 292 278 253 224 239 252 261 262 270 259 257 269 275 286 292 289 291 292 292 293 295 293 292 286 282 275 277 281 280 274 262 257 264 268 265 246 237 240 242 242 242 243 243 244 245 247 249 249 249 249 250 251 253 255 255 256 256 256 256 253
230 238 247 251 249 258 249 253 251 256 261 269 263 276 291 293 282 267 274 283 285 289 289 289 289 283 289 290 277 288 292 294 282 277 285 289 293 289 282 282 287 285 280 278 280 274 258 246 241 245 250 249 247 245 245 246 247 247 246 245 244 243 244 247 250 253 254 253 252 252 253 253 252 250
218 228 243 284 32 357 323 326 1 3 16 347 341 334 305 291 286 282 276 276 283 285 283 284 284 283 285 282 289 287 275 269 273 288 292 291 292 288 287 282 279 279 280 276 280 280 283 282 281 282 278 260 248 247 244 247 245 242 241 241 242 244 245 246 248 250 250 250 249 247 249 250 248 248
227 232 239 133 176 222 250 231 150 266 307 289 219 255 272 280 281 275 273 275 280 283 282 282 282 282 280 282 286 289 287 286 286 289 294 296 295 293 288 285 273 273 276 281 282 279 277 278 279 276 275 272 268 272 271 276 282 281 265 242 232 233 238 242 245 247 248 248 247 246 246 246 245 245
228 230 211 186 185 187 169 158 233 280 267 263 249 237 239 246 255 269 268 266 271 278 280 282 280 280 282 282 286 286 286 284 291 297 297 294 292 290 294 293 292 265 281 286 287 281 280 282 281 277 276 281 278 276 275 274 270 258 253 254 258 263 262 258 254 252 252 251 249 248 245 243 243 243
232 231 229 215 170 181 182 199 217 213 236 244 242 237 235 234 246 244 248 259 268 271 278 282 283 285 284 289 290 289 295 303 299 299 296 289 290 291 287 286 283 293 294 289 289 285 281 277 278 279 276 272 276 274 271 263 255 253 254 259 261 257 257 258 259 261 262 262 257 250 246 243 242 241
227 225 220 226 202 189 207 207 210 218 226 230 234 238 234 235 236 238 234 233 243 261 259 267 273 278 293 300 293 301 310 305 293 297 294 292 293 292 286 282 287 294 304 295 284 282 287 288 283 278 269 268 267 272 272 272 261 248 242 249 259 267 270 272 274 274 270 265 260 254 248 244 242 241
226 219 217 222 236 230 209 208 222 232 234 232 226 225 230 231 230 230 232 235 238 236 246 262 274 275 277 275 284 288 288 295 299 300 294 298 294 289 284 292 293 290 288 283 287 284 280 279 280 280 283 284 276 269 281 286 287 279 270 264 263 268 275 277 276 273 269 265 260 255 251 246 242 241
221 230 231 234 246 242 220 213 224 232 226 226 239 246 246 250 252 250 259 256 232 219 225 242 247 254 257 262 279 302 307 302 297 295 293 291 286 285 286 285 281 283 271 268 273 281 284 282 281 278 282 285 288 295 292 281 276 272 264 267 275 279 278 277 275 272 269 265 259 254 250 246 241 239
228 232 241 244 243 248 242 213 210 228 250 246 245 252 258 265 265 265 263 267 275 275 265 249 265 278 299 339 297 288 290 291 285 284 285 284 281 279 276 276 285 285 287 277 280 280 281 287 287 290 290 289 288 288 287 286 281 278 278 280 279 275 275 275 274 272 270 266 261 254 249 245 241 238
237 242 225 232 237 234 237 150 157 152 225 242 248 253 262 266 273 274 273 257 236 229 226 246 268 280 279 269 267 263 259 255 265 279 284 275 277 278 284 287 288 284 287 287 286 289 292 291 290 290 291 293 289 285 280 280 277 279 285 284 279 275 273 271 271 271 268 265 261 256 250 243 239 235
200 211 217 211 234 234 220 140 144 153 202 238 249 259 265 268 269 272 278 286 248 206 219 220 242 248 248 250 251 253 253 253 245 241 251 262 282 284 284 288 289 291 290 290 289 284 290 301 301 295 293 287 278 277 279 283 284 279 271 268 272 274 273 271 270 269 267 264 261 257 249 242 234 230
229 208 182 188 208 337 112 140 154 186 219 245 255 265 267 269 270 276 296 299 304 315 302 269 262 261 249 248 252 244 231 238 236 225 235 252 275 277 279 290 294 292 287 292 315 300 295 298 299 301 296 286 284 282 283 276 269 272 277 280 282 278 275 271 267 267 266 263 261 256 247 237 225 222
196 196 194 152 118 127 141 149 165 193 242 255 262 270 273 273 285 345 329 310 317 309 302 300 294 285 282 282 282 283 282 257 220 219 229 239 254 275 290 294 294 291 295 298 308 304 304 299 291 288 285 292 296 295 289 284 277 274 285 287 284 283 279 270 261 258 257 259 261 255 243 230 214 216
213 193 215 183 139 142 145 163 176 198 208 275 284 268 284 346 338 314 303 311 319 302 295 285 272 273 286 295 295 292 286 283 292 292 288 302 308 309 306 302 296 290 290 297 318 299 296 294 289 289 285 282 290 293 296 292 289 273 284 285 287 286 286 284 281 279 277 259 249 246 239 226 209 206
244 232 195 141 143 147 156 163 181 187 205 231 257 11 49 356 1 347 311 302 297 293 293 286 290 298 300 303 298 291 292 302 310 312 309 311 313 304 296 292 291 290 289 295 300 292 292 287 285 290 288 290 290 291 296 292 294 291 295 292 289 285 282 281 279 277 272 273 264 236 230 222 209 204
230 187 96 116 146 153 151 162 172 179 195 226 267 17 357 354 326 294 290 294 293 285 280 289 294 294 293 289 291 297 305 304 309 316 312 306 298 291 286 282 279 282 286 290 289 285 282 282 284 282 288 290 291 300 299 302 303 307 295 290 294 290 284 281 276 278 275 272 268 243 219 214 206 203
243 222 136 133 144 142 150 160 174 183 205 264 40 303 307 307 304 291 289 277 266 261 280 293 292 290 293 297 300 301 307 311 317 309 299 290 287 287 291 289 285 283 286 286 285 282 279 274 279 279 287 303 305 305 305 298 291 297 300 300 296 295 291 288 286 281 275 270 270 259 199 203 202 201
76 80 97 117 139 150 160 158 173 203 227 242 254 264 269 265 278 274 271 261 271 295 297 287 289 294 300 298 296 304 312 312 302 290 291 294 294 293 289 288 287 288 286 283 283 286 286 283 283 303 313 304 300 299 298 296 302 300 301 303 304 308 306 298 293 291 288 283 279 270 244 199 189 191
106 108 116 132 140 149 155 171 194 220 209 206 222 240 241 260 263 259 261 275 300 298 297 299 300 298 297 300 312 316 300 290 295 299 295 301 303 305 305 302 297 293 290 291 295 290 284 289 308 311 306 298 297 300 297 300 300 298 303 301 299 296 292 303 297 293 283 281 276 267 252 207 192 179
115 135 156 162 186 156 176 216 271 282 134 174 201 222 222 235 243 237 255 292 299 298 293 293 293 300 306 307 299 289 294 294 290 302 308 305 307 311 307 303 301 303 302 299 299 303 308 308 309 314 307 297 296 300 297 299 298 302 305 302 307 304 311 306 301 300 302 290 284 267 256 209 190 183
149 156 133 140 182 168 189 212 228 232 234 237 220 225 231 239 257 281 276 213 255 252 271 292 297 294 299 295 297 303 299 302 306 308 306 307 307 305 305 303 302 307 305 304 305 305 303 303 310 305 301 299 298 297 298 297 300 306 309 310 306 305 303 307 308 308 307 309 298 277 246 196 190 188
156 171 175 175 182 200 223 230 245 254 249 229 249 263 254 242 251 281 301 291 291 296 301 302 302 299 295 299 301 299 301 304 307 304 304 304 296 294 292 295 301 304 307 308 310 306 302 304 300 303 299 301 291 293 298 300 308 317 315 315 317 314 315 311 306 305 311 308 302 291 238 216 200 196
194 213 226 237 245 242 247 244 251 260 260 273 281 264 272 285 283 275 277 298 294 298 317 306 295 297 301 296 303 305 305 307 306 309 299 293 294 293 294 302 307 308 308 308 312 314 312 304 303 296 298 297 292 280 282 283 298 314 317 315 318 323 317 317 315 314 310 303 301 299 250 223 212 203
228 240 246 257 258 260 268 271 274 287 292 290 290 283 284 289 286 290 299 316 346 328 301 300 293 291 300 304 302 304 309 311 308 303 299 299 297 297 304 305 309 312 310 311 314 317 310 311 316 317 316 316 315 310 259 244 283 305 317 320 330 327 327 326 322 320 318 310 312 287 263 236 219 211
240 255 258 257 260 265 270 278 297 301 298 300 290 299 291 283 319 331 311 28 335 311 296 287 298 302 295 297 303 309 309 306 302 305 309 306 304 307 305 303 306 310 309 309 315 319 320 316 319 322 321 323 321 319 328 242 225 284 317 325 329 325 325 328 322 321 321 322 320 312 283 248 227 220
253 252 255 243 241 266 279 281 277 278 280 282 289 287 283 305 310 299 328 348 303 290 283 288 286 292 298 301 312 309 306 309 309 310 305 307 310 311 312 313 314 316 316 317 316 316 315 311 317 323 322 321 320 320 314 327 319 275 317 327 327 328 326 330 332 325 328 325 313 318 308 277 249 231
253 254 261 263 270 284 291 288 283 286 291 290 289 282 289 317 310 299 302 293 277 280 292 301 310 303 307 321 311 308 308 308 310 308 310 311 315 319 319 316 317 319 316 310 317 322 324 314 321 328 327 325 318 321 323 322 321 331 337 329 329 330 330 333 335 332 329 331 322 318 315 312 282 250
261 288 290 292 307 303 288 293 315 299 288 285 266 276 312 323 307 303 300 299 303 303 304 301 297 315 317 304 301 306 309 314 313 312 312 317 320 320 317 318 320 315 308 314 325 329 328 328 337 333 319 318 321 318 316 314 315 315 324 325 334 329 336 334 328 327 331 333 328 316 293 274 281 274
208 229 265 284 290 296 299 307 292 279 277 269 270 274 272 290 303 305 303 297 310 332 309 299 298 300 294 304 311 309 313 314 313 313 319 321 321 316 318 324 313 308 315 322 326 331 334 340 340 332 305 304 292 295 289 285 280 296 324 339 348 349 333 329 335 332 332 337 327 320 318 317 307 264
254 293 285 270 264 273 274 268 267 266 266 305 337 352 288 281 287 288 294 324 326 303 291 289 292 296 302 310 312 315 316 317 315 317 324 320 316 317 317 311 309 321 322 320 328 332 340 339 330 333 311 301 311 304 307 329 339 344 346 344 345 345 338 337 331 328 319 328 340 332 323 316 308 288
255 268 268 256 256 248 255 258 260 274 281 270 271 281 335 360 267 239 273 268 254 255 264 273 288 304 309 312 314 319 316 316 318 325 324 319 318 318 318 319 322 325 321 323 330 335 333 331 341 335 327 326 340 343 342 338 338 339 341 335 338 342 343 337 334 335 325 331 350 349 336 321 320 301
259 253 260 262 255 239 252 272 276 281 299 310 275 278 302 282 290 248 244 250 246 264 282 296 312 307 311 314 319 319 316 318 330 326 317 316 322 320 322 323 324 322 321 322 330 327 328 332 350 334 329 328 343 340 342 333 330 335 338 342 343 342 341 341 340 339 336 334 2 4 345 312 302 294
232 231 239 230 245 276 359 283 292 309 299 292 288 299 264 259 263 265 261 273 274 278 302 310 301 304 311 318 319 318 316 328 324 311 316 320 319 321 320 321 323 327 324 328 332 329 334 340 337 327 326 342 345 344 346 338 337 339 340 338 343 350 349 346 343 345 356 357 356 354 351 355 351 305
229 231 229 232 231 235 239 240 257 261 252 262 302 292 275 261 259 268 275 278 281 280 288 297 305 311 317 322 323 314 318 312 306 318 319 320 324 322 324 324 327 329 327 336 331 329 339 345 352 0 353 342 352 349 346 348 342 342 343 343 348 350 351 350 352 349 357 356 353 351 347 352 15 27